Date String (YYYY-MM-DD hh:mm:ss) UTC,Instrument flags,Ambient pressure (hPa),Sample flow (lpm),Bypass flow (lpm),Sample temperature (°C),Ambient temperature (°C),ASC tube jacket temperature (°C),LED temperature (°C),Box temperature (°C),Sample RH (%),Mass concentration (μg/m³),Mass concentration (μg/m³)
DateTimeUTC,F1_M11,P_M11,Q1_M11,Q2_M11,T1_M11,T2_M11,T3_M11,T4_M11,T5_M11,U1_M11,X0_M11,X2_M11
2021-08-18 16:00:00,,0824.6,4.99,0.00,29.5,27.7,00.0,38.6,31.3,22.4,0029.19,0017.25
2021-08-18 16:01:00,,0824.6,5.01,0.00,29.5,28.0,00.0,38.6,31.4,22.2,0029.19,0017.28
2021-08-18 16:02:00,,0824.6,5.00,0.00,29.6,28.2,00.0,38.6,31.4,22.3,0029.43,0017.25
2021-08-18 16:03:00,,0824.6,4.99,0.00,29.6,28.4,00.0,38.6,31.5,22.6,0029.51,0017.21
2021-08-18 16:04:00,,0824.6,5.01,0.00,29.7,28.6,00.0,38.7,31.6,22.0,0029.65,0017.21
2021-08-18 16:05:00,,0824.7,5.00,0.00,29.7,28.4,00.0,38.7,31.5,21.2,0030.13,0017.20
2021-08-18 16:06:00,,0824.7,5.01,0.00,29.6,26.8,00.0,38.7,31.1,21.6,0030.34,0017.18
2021-08-18 16:07:00,,0824.6,4.99,0.00,29.5,26.2,00.0,38.7,30.9,21.4,0028.72,0017.17
2021-08-18 16:08:00,,0824.6,5.00,0.00,29.5,26.6,00.0,38.6,31.0,21.8,0027.06,0017.16
2021-08-18 16:09:00,,0824.7,5.01,0.00,29.4,27.0,00.0,38.6,31.1,21.6,0026.60,0017.12
2021-08-18 16:10:00,,0824.7,5.00,0.00,29.4,27.4,00.0,38.6,31.2,21.5,0026.06,0017.08
2021-08-18 16:11:00,,0824.8,4.99,0.00,29.5,27.7,00.0,38.6,31.3,21.1,0025.86,0017.02
2021-08-18 16:12:00,,0824.8,5.01,0.00,29.5,28.0,00.0,38.6,31.3,20.9,0025.61,0016.99
2021-08-18 16:13:00,,0824.8,4.99,0.00,29.6,28.3,00.0,38.6,31.4,20.5,0025.50,0017.03
2021-08-18 16:14:00,,0824.8,5.01,0.00,29.6,28.5,00.0,38.6,31.5,20.9,0024.81,0017.03
2021-08-18 16:15:00,,0824.9,5.01,0.00,29.7,28.4,00.0,38.6,31.5,20.8,0024.82,0017.06
2021-08-18 16:16:00,,0824.8,4.99,0.00,29.6,27.0,00.0,38.6,31.1,20.9,0024.46,0017.07
2021-08-18 16:17:00,,0824.8,5.01,0.00,29.4,26.2,00.0,38.6,30.8,20.9,0024.78,0017.14
2021-08-18 16:18:00,,0824.9,5.00,0.00,29.4,26.6,00.0,38.6,30.9,20.4,0025.51,0017.20
2021-08-18 16:19:00,,0824.9,4.99,0.00,29.4,27.0,00.0,38.5,31.0,20.0,0025.65,0017.30
2021-08-18 16:20:00,,0824.9,5.00,0.00,29.4,27.4,00.0,38.5,31.1,20.5,0025.58,0017.34
2021-08-18 16:21:00,,0824.9,4.99,0.00,29.4,27.7,00.0,38.5,31.2,20.2,0025.63,0017.38
2021-08-18 16:22:00,,0824.9,5.01,0.00,29.4,28.0,00.0,38.5,31.3,20.0,0025.79,0017.47
2021-08-18 16:23:00,,0824.9,5.00,0.00,29.5,28.2,00.0,38.5,31.4,19.4,0026.13,0017.51
2021-08-18 16:24:00,,0824.8,5.01,0.00,29.5,28.4,00.0,38.5,31.5,19.1,0026.22,0017.51
2021-08-18 16:25:00,,0824.8,5.00,0.00,29.6,28.5,00.0,38.6,31.5,19.4,0026.30,0017.59
2021-08-18 16:26:00,,0824.7,4.99,0.00,29.6,27.2,00.0,38.6,31.1,19.5,0026.10,0017.65
2021-08-18 16:27:00,,0824.7,5.01,0.00,29.4,26.2,00.0,38.5,30.7,20.4,0025.56,0017.76
2021-08-18 16:28:00,,0824.7,5.00,0.00,29.4,26.6,00.0,38.5,30.9,20.8,0025.79,0017.83
2021-08-18 16:29:00,,0824.7,5.01,0.00,29.4,27.0,00.0,38.5,31.0,20.4,0025.17,0017.95
2021-08-18 16:30:00,,0824.7,5.01,0.00,29.4,27.4,00.0,38.5,31.1,20.0,0025.24,0018.03
2021-08-18 16:31:00,,0824.8,5.00,0.00,29.4,27.7,00.0,38.5,31.2,20.0,0024.96,0018.15
2021-08-18 16:32:00,,0824.8,4.99,0.00,29.5,28.0,00.0,38.5,31.3,20.6,0024.92,0018.23
2021-08-18 16:33:00,,0824.9,5.01,0.00,29.5,28.3,00.0,38.5,31.4,20.8,0024.94,0018.30
2021-08-18 16:34:00,,0824.9,5.00,0.00,29.5,27.9,00.0,38.5,31.2,20.7,0025.35,0018.37
2021-08-18 16:35:00,,0824.9,5.01,0.00,29.4,26.4,00.0,38.5,30.8,21.3,0025.75,0018.39
2021-08-18 16:36:00,,0824.9,5.00,0.00,29.3,26.2,00.0,38.5,30.7,21.0,0025.78,0018.38
2021-08-18 16:37:00,,0824.9,5.00,0.00,29.3,26.6,00.0,38.4,30.8,21.4,0025.96,0018.36
2021-08-18 16:38:00,,0824.9,4.98,0.00,29.3,27.0,00.0,38.4,30.9,21.1,0026.14,0018.28
2021-08-18 16:39:00,,0824.9,5.01,0.00,29.3,27.4,00.0,38.4,31.0,21.1,0025.40,0018.21
2021-08-18 16:40:00,,0824.9,5.00,0.00,29.3,27.7,00.0,38.4,31.1,20.9,0025.24,0018.11
2021-08-18 16:41:00,,0824.9,4.99,0.00,29.4,28.0,00.0,38.4,31.3,20.7,0024.97,0018.02
2021-08-18 16:42:00,,0824.9,5.01,0.00,29.4,28.3,00.0,38.4,31.3,20.7,0024.85,0017.90
2021-08-18 16:43:00,,0824.9,4.99,0.00,29.5,27.9,00.0,38.4,31.2,21.0,0025.05,0017.83
2021-08-18 16:44:00,,0824.9,5.02,0.00,29.4,26.4,00.0,38.4,30.8,21.2,0024.77,0017.74
2021-08-18 16:45:00,,0824.9,5.00,0.00,29.2,26.1,00.0,38.4,30.7,21.1,0024.08,0017.71
2021-08-18 16:46:00,,0824.9,4.99,0.00,29.2,26.6,00.0,38.4,30.8,21.0,0023.49,0017.67
2021-08-18 16:47:00,,0824.9,5.01,0.00,29.2,26.9,00.0,38.4,30.9,21.1,0023.79,0017.63
2021-08-18 16:48:00,,0824.9,5.01,0.00,29.2,27.3,00.0,38.3,30.9,21.2,0023.80,0017.57
2021-08-18 16:49:00,,0824.8,4.99,0.00,29.3,27.7,00.0,38.3,31.1,21.2,0023.70,0017.57
2021-08-18 16:50:00,,0824.9,5.00,0.00,29.3,28.0,00.0,38.3,31.2,21.1,0023.60,0017.59
2021-08-18 16:51:00,,0824.9,5.01,0.00,29.4,28.2,00.0,38.4,31.3,21.8,0023.87,0017.58
2021-08-18 16:52:00,,0824.9,5.00,0.00,29.4,28.4,00.0,38.4,31.4,21.0,0023.93,0017.52
2021-08-18 16:53:00,,0824.9,5.00,0.00,29.5,28.2,00.0,38.4,31.3,20.9,0023.92,0017.48
2021-08-18 16:54:00,,0824.9,5.01,0.00,29.4,26.6,00.0,38.4,30.8,21.0,0024.02,0017.48
2021-08-18 16:55:00,,0824.9,4.99,0.00,29.3,26.1,00.0,38.4,30.7,21.1,0023.98,0017.40
2021-08-18 16:56:00,,0824.8,5.00,0.00,29.2,26.5,00.0,38.4,30.8,20.8,0024.85,0017.25
2021-08-18 16:57:00,,0824.8,5.00,0.00,29.2,26.9,00.0,38.3,30.9,21.1,0024.73,0017.16
2021-08-18 16:58:00,,0824.9,5.00,0.00,29.2,27.3,00.0,38.3,31.0,20.7,0024.72,0017.10
2021-08-18 16:59:00,,0824.9,5.00,0.00,29.3,27.7,00.0,38.3,31.1,20.2,0024.57,0017.07
